GW5319 Weather Reports


time (UTC)temp
C
wind
direction
speed
KPH
gust
KPH
rain 1hr
cm
rain 24hr
cm
rain mn
cm
humidity
%
barometer
mb
20260505024603 5 0 0.0 1.6 0.00 0.00 0.00 83 1015.1
20260505023054 5 0 0.0 0.0 0.00 0.00 0.00 82 1015.0
20260505021555 5 0 0.0 0.0 0.00 0.00 0.00 81 1015.0
20260505020054 6 0 1.6 1.6 0.00 0.00 0.00 81 1015.2
20260505014608 6 354 0.0 3.2 0.00 0.00 0.00 79 1015.2
20260505013055 6 354 1.6 4.8 0.00 0.00 0.00 79 1015.2
20260505011605 6 330 3.2 4.8 0.00 0.00 0.00 79 1015.3
20260505010100 6 354 1.6 4.8 0.00 0.00 0.00 79 1015.3
20260505004602 7 352 0.0 6.4 0.00 0.00 0.00 77 1015.3
20260505003108 7 324 3.2 6.4 0.00 0.00 0.00 80 1015.4
20260505001557 7 359 1.6 6.4 0.00 0.00 0.00 79 1015.4
20260505000116 7 360 3.2 6.4 0.00 0.00 0.00 80 1015.4
20260504234555 7 0 0.0 4.8 0.00 0.00 0.00 79 1015.5
20260504233108 7 0 0.0 1.6 0.00 0.00 0.00 79 1015.7
20260504231554 7 326 0.0 1.6 0.00 0.00 0.00 79 1015.7
20260504230053 7 322 0.0 1.6 0.00 0.00 0.00 78 1015.7
20260504224601 8 321 0.0 1.6 0.00 0.00 0.00 78 1015.8
20260504223129 8 0 0.0 0.0 0.00 0.00 0.00 77 1016.0
20260504221552 8 321 0.0 1.6 0.00 0.00 0.00 76 1016.0
20260504220053 8 321 0.0 1.6 0.00 0.00 0.00 75 1016.0
20260504214555 9 0 0.0 1.6 0.00 0.00 0.00 74 1016.0
20260504213101 9 321 0.0 1.6 0.00 0.00 0.00 73 1016.0
20260504211553 10 0 0.0 1.6 0.00 0.00 0.00 71 1016.0
20260504210058 10 0 0.0 1.6 0.00 0.00 0.00 72 1016.1
20260504204557 11 0 0.0 1.6 0.00 0.00 0.00 71 1016.0
20260504203108 12 0 0.0 0.0 0.00 0.00 0.00 70 1016.0
20260504201555 12 0 0.0 0.0 0.00 0.00 0.00 69 1015.9
20260504200106 12 0 0.0 1.6 0.00 0.00 0.00 69 1015.9
20260504194553 13 0 0.0 0.0 0.00 0.00 0.00 67 1015.9
20260504193058 13 0 0.0 1.6 0.00 0.00 0.00 65 1015.8
20260504191557 14 0 0.0 0.0 0.00 0.00 0.00 64 1015.8
20260504190054 15 0 0.0 1.6 0.00 0.00 0.00 62 1015.7
20260504184559 16 0 0.0 0.0 0.00 0.00 0.00 59 1015.6
20260504183057 17 0 0.0 0.0 0.00 0.00 0.00 56 1015.4
20260504181603 18 0 0.0 0.0 0.00 0.00 0.00 52 1015.3
20260504180059 19 0 0.0 0.0 0.00 0.00 0.00 48 1015.3
20260504174609 21 0 0.0 0.0 0.00 0.00 0.00 43 1015.2
20260504173055 23 0 0.0 3.2 0.00 0.00 0.00 38 1015.2
20260504171558 23 231 1.6 6.4 0.00 0.00 0.00 35 1015.1
20260504160104 25 140 6.4 16.1 0.00 0.00 0.00 28 1015.4
20260504150103 25 218 9.7 17.7 0.00 0.00 0.00 28 1015.7
20260504090104 21 162 11.3 22.5 0.00 0.00 0.00 36 1019.4
20260504081553 20 188 12.9 24.1 0.00 0.00 0.00 41 1019.6
20260504044601 4 332 1.6 3.2 0.00 0.00 0.00 82 1019.7
20260504043057 3 356 3.2 4.8 0.00 0.00 0.00 85 1019.6
20260504041556 2 344 0.0 3.2 0.00 0.00 0.00 85 1019.6
20260504040107 2 345 0.0 1.6 0.00 0.00 0.00 86 1019.5
20260504034613 2 345 0.0 1.6 0.00 0.00 0.00 86 1019.5
20260504033055 2 345 1.6 4.8 0.00 0.00 0.00 85 1019.4
20260504031600 2 334 0.0 1.6 0.00 0.00 0.00 85 1019.4
20260504030119 2 0 0.0 0.0 0.00 0.00 0.00 84 1019.4